Theta_e
316 316 316 314 312 311 317 323 320 335 330 317 320 313 316 312 319 320 317 316 311 310 311 306 304 305 309 314 312 306 310 306 300 305 314 315 311 307 307 296 304 303 304 310
316 315 315 314 312 311 310 316 321 333 330 315 315 319 318 319 319 315 316 315 316 316 310 310 310 311 316 314 310 311 310 305 299 302 306 311 307 309 303 300 309 305 304 309
316 315 314 313 312 312 312 319 320 325 327 326 317 314 316 315 321 319 319 317 317 313 311 313 312 312 316 316 314 328 319 307 304 299 304 308 307 311 311 306 305 307 310 313
316 315 314 313 313 312 314 324 322 328 316 321 321 318 317 315 315 320 319 316 315 314 309 310 311 314 314 315 318 314 310 304 306 309 310 309 309 310 311 304 312 305 311 315
315 315 315 314 313 312 321 323 320 322 318 322 321 312 315 316 317 316 313 315 317 316 312 312 310 312 311 311 315 308 310 305 308 306 312 311 309 312 312 312 314 315 315 314
315 315 315 315 314 313 318 323 324 321 314 317 317 316 318 318 319 321 320 317 316 317 318 318 318 316 317 315 309 310 309 307 304 301 310 310 304 309 313 314 317 315 308 316
315 315 315 315 315 314 312 316 318 318 314 317 317 320 321 319 320 318 319 318 316 321 325 321 317 316 316 315 313 311 309 308 307 301 305 298 308 316 320 317 320 319 319 322
314 314 315 315 316 316 314 313 315 319 314 318 317 319 320 321 321 318 318 319 322 320 315 310 308 307 308 312 314 312 312 309 304 300 302 307 309 315 319 316 313 322 320 319
313 314 315 315 315 316 314 313 316 317 316 315 320 318 320 318 317 316 320 322 321 317 312 309 304 302 307 306 309 312 310 313 308 306 301 300 313 321 323 320 308 324 325 325
312 313 313 314 316 316 316 314 316 316 315 319 321 317 317 322 320 318 319 322 318 318 310 306 306 304 311 305 306 307 306 307 304 303 302 308 316 318 320 307 310 326 328 324
312 313 313 313 315 317 315 313 317 314 314 317 322 322 319 320 321 316 320 319 318 313 308 308 309 310 313 308 312 309 309 305 303 304 302 301 323 324 317 319 325 324 324 323
312 312 313 314 314 315 316 310 317 318 314 319 325 326 326 324 324 321 321 320 320 320 316 316 318 310 313 313 305 315 306 311 309 308 312 319 323 326 323 324 323 323 322 323
311 312 312 313 313 314 313 311 313 314 314 317 319 319 326 328 328 330 318 322 322 319 322 319 319 311 314 312 310 313 317 320 317 317 320 321 323 326 326 326 325 326 325 326
311 311 311 313 313 313 312 307 312 312 313 310 315 326 323 329 329 328 326 324 323 320 323 318 316 312 318 314 316 316 319 319 318 318 320 323 324 327 327 329 328 330 333 337
312 311 311 312 312 312 310 309 311 314 309 307 310 317 323 326 327 328 326 321 317 318 317 315 312 316 315 317 316 314 322 319 312 317 326 322 320 328 329 326 327 332 334 336
312 312 312 312 311 311 307 308 317 317 313 312 306 320 322 325 327 326 325 322 319 320 317 315 317 319 316 312 311 319 321 322 326 325 327 326 326 329 330 327 327 328 327 330
311 312 311 311 310 307 301 304 308 310 308 310 309 310 319 325 325 325 324 324 322 320 317 314 315 317 319 315 310 320 322 323 324 330 329 326 327 326 328 330 330 329 329 328
311 311 311 310 309 307 302 308 309 309 307 313 309 309 314 323 319 318 325 321 323 322 318 319 315 317 320 313 318 322 323 324 323 323 324 324 324 324 326 327 327 325 326 328
311 311 310 308 304 302 311 315 315 314 311 305 309 307 308 323 319 322 322 322 316 323 316 316 319 314 313 321 321 324 325 323 321 323 323 324 322 322 327 325 324 320 322 326
310 307 302 300 310 318 318 314 309 306 307 307 304 311 310 320 314 317 317 320 316 313 317 322 315 313 321 327 326 326 327 329 324 320 319 320 321 323 325 324 324 326 324 328
305 301 302 307 316 311 308 304 303 305 301 305 307 309 307 317 312 313 319 316 316 310 315 314 314 311 318 326 328 331 330 327 326 326 327 325 323 324 325 326 328 328 326 330
302 302 304 306 309 302 298 298 302 301 299 306 305 308 309 312 324 314 317 316 316 309 320 315 310 317 324 324 332 331 331 328 328 330 332 331 332 331 329 328 330 330 332 337
305 303 299 301 302 291 292 290 294 296 306 306 305 307 312 315 316 316 312 311 311 320 313 310 314 323 328 327 330 331 331 331 330 331 332 330 330 331 331 330 331 332 333 336
298 296 289 294 294 296 297 298 301 308 308 306 304 305 309 313 310 312 307 312 314 309 307 309 318 325 333 331 330 331 330 329 329 331 331 331 331 330 332 333 334 334 332 335
294 295 289 294 300 302 303 306 305 310 310 307 304 304 305 307 308 309 308 306 305 309 308 319 334 337 336 333 331 330 329 329 329 330 330 331 332 332 333 335 335 335 336 336
296 294 292 297 298 299 301 304 302 304 308 309 307 301 299 300 299 303 304 304 302 305 308 321 332 331 333 334 334 333 332 331 331 332 332 334 333 332 335 335 334 335 336 337
293 293 299 298 298 299 304 306 305 307 305 300 301 296 294 298 294 300 304 298 301 303 306 316 329 329 327 327 328 330 330 331 331 331 332 332 333 332 332 330 334 336 337 337
Wind_Speed
25 26 26 27 27 34 9 6 4 2 5 3 2 3 3 9 14 12 4 4 2 5 7 8 6 9 9 9 10 8 2 6 1 7 17 18 10 9 12 6 3 5 7 8
25 26 26 26 23 18 8 6 5 5 5 3 5 5 15 21 20 4 3 4 3 6 6 8 9 2 5 7 3 9 7 3 4 10 6 9 5 8 9 2 5 3 7 9
25 26 27 26 25 17 5 4 5 3 1 2 10 6 4 26 9 8 4 3 8 8 9 4 6 13 14 5 6 5 7 6 8 7 8 3 9 17 18 4 5 3 2 5
25 26 27 28 30 30 2 4 2 2 4 3 2 9 16 23 28 4 11 7 8 9 5 3 9 8 16 13 5 1 6 7 7 5 4 5 11 16 20 3 18 9 11 8
24 26 26 27 30 37 3 5 4 6 11 12 9 12 16 23 31 7 5 7 2 5 5 6 3 6 4 6 12 4 3 1 3 4 14 10 10 14 19 6 16 18 15 4
23 24 25 25 25 23 5 7 8 5 6 9 10 8 4 3 7 6 11 9 4 2 7 10 11 13 10 9 4 4 4 4 3 3 8 5 7 10 13 14 17 20 12 9
22 23 23 23 21 14 5 5 6 6 7 8 11 20 19 6 14 5 8 7 1 7 7 4 6 8 8 11 15 8 4 5 4 2 9 6 9 3 5 18 12 8 10 9
22 22 22 22 21 17 7 5 5 5 8 10 16 17 17 4 15 7 4 7 2 5 4 3 5 5 6 15 13 13 8 7 3 3 3 9 10 8 10 9 7 7 8 10
22 22 22 21 22 22 7 10 8 5 6 8 8 15 15 9 10 4 5 6 7 3 2 3 7 7 8 7 6 9 4 16 8 9 8 9 5 12 22 9 7 6 7 3
21 22 23 22 22 21 9 8 10 6 7 10 9 7 10 12 9 5 7 2 4 5 3 3 4 6 8 5 5 7 3 1 1 2 2 4 14 6 15 6 11 8 6 6
20 21 22 21 21 21 9 10 12 6 8 16 18 20 16 12 6 4 11 6 1 1 2 3 4 2 4 4 2 5 3 5 1 3 1 3 3 8 8 8 15 13 13 17
19 20 20 19 19 18 14 7 11 11 7 9 21 18 20 20 19 10 5 6 6 0 4 5 4 4 5 8 2 4 3 4 3 5 4 4 5 14 19 24 26 19 16 19
20 20 20 19 18 17 13 7 9 9 7 11 12 12 15 15 19 14 4 5 4 6 3 2 3 3 2 3 2 1 7 5 3 7 5 7 8 15 22 22 21 17 17 19
19 20 20 19 18 18 15 7 7 8 7 6 7 8 10 18 15 16 14 15 9 6 3 1 2 2 2 2 2 4 5 4 4 3 5 6 7 6 10 13 11 13 15 10
18 19 20 19 19 19 13 11 10 9 7 6 10 21 25 19 16 17 15 12 6 2 3 1 3 3 3 3 2 2 2 3 4 4 6 8 4 7 9 7 12 13 23 23
18 18 18 18 17 15 8 4 5 5 5 4 6 7 12 14 14 16 5 5 5 4 3 3 4 7 2 2 1 5 1 6 3 7 8 7 9 8 7 6 6 9 11 12
18 17 17 17 17 7 6 6 4 9 8 5 5 6 8 12 11 6 5 6 3 4 4 4 3 5 2 1 2 4 8 5 8 8 8 7 8 6 6 5 7 7 9 10
18 18 19 20 17 17 9 10 18 7 4 5 5 6 6 11 5 4 6 4 3 3 4 3 5 3 2 4 7 5 5 3 8 7 6 6 4 4 2 6 7 6 4 8
19 19 23 13 5 5 2 8 10 2 1 4 4 4 4 6 9 5 3 5 4 4 8 5 3 4 6 7 6 3 4 4 6 6 4 1 3 7 7 8 6 5 4 4
19 10 4 4 2 5 3 5 4 1 2 3 3 6 6 5 5 4 6 4 5 5 7 5 8 8 7 6 8 8 4 6 8 5 1 1 2 4 7 7 4 4 5 4
2 4 4 6 9 2 3 3 4 4 4 3 4 8 6 5 3 4 4 5 5 5 6 9 5 8 10 7 10 9 8 5 6 6 5 5 4 4 5 5 4 2 2 5
3 4 7 6 3 2 2 3 2 4 4 5 4 7 7 5 3 1 6 3 5 6 7 6 4 5 10 13 9 10 10 10 6 4 6 8 8 7 6 5 4 4 3 9
3 4 5 4 3 1 3 3 3 3 2 2 2 4 4 3 1 4 3 5 4 3 3 6 4 6 8 10 9 9 11 11 9 6 7 8 6 6 3 2 2 4 6 5
3 4 5 4 4 4 4 4 7 0 3 2 3 4 4 4 4 2 6 3 7 4 8 11 3 9 9 10 10 15 13 10 9 9 9 7 3 2 3 1 1 1 2 4
3 4 5 5 2 5 5 4 6 4 1 2 2 2 3 4 1 3 4 3 5 4 7 3 3 6 6 12 15 16 13 9 8 8 7 7 3 4 0 1 3 2 3 4
3 5 5 8 6 3 3 4 4 4 6 2 1 2 3 3 6 3 3 0 2 6 6 13 4 8 9 9 9 8 9 9 8 8 7 6 6 3 1 5 3 3 3 3
4 5 7 10 9 9 2 3 1 3 2 1 1 1 2 4 4 3 4 4 7 12 13 13 8 7 9 9 11 10 9 8 9 9 8 7 4 4 5 3 3 6 6 5
Wind_Direction
352 352 352 350 351 340 1 316 301 228 62 232 212 184 353 322 294 315 138 57 288 315 327 320 247 210 217 191 213 164 168 146 96 270 272 272 304 284 287 135 334 96 135 12
353 352 351 350 353 5 321 313 271 299 107 259 258 308 304 306 295 240 102 344 268 50 31 342 334 146 350 353 150 160 186 32 23 324 339 336 266 296 295 32 90 298 110 179
352 352 349 347 343 347 314 284 298 342 257 313 335 347 346 295 168 151 196 116 346 16 45 330 315 348 348 321 83 99 136 131 169 195 232 256 298 308 315 84 91 141 107 153
352 351 351 346 341 339 240 231 306 154 311 28 20 49 297 303 309 318 161 132 158 182 191 158 4 4 343 312 144 338 105 142 195 229 242 322 302 299 301 330 158 130 191 124
352 352 351 350 347 336 215 307 3 339 291 274 221 167 250 243 271 48 9 126 196 151 142 119 149 53 272 265 319 211 143 31 9 45 331 341 328 303 307 76 121 105 126 123
350 352 352 353 356 347 343 345 339 275 267 295 295 227 290 251 317 313 309 107 151 41 130 163 169 188 217 246 261 301 72 110 42 300 313 13 337 2 343 94 127 131 140 196
348 350 350 352 357 9 328 310 295 279 287 308 299 322 307 257 310 230 348 358 291 181 136 65 322 265 256 263 248 201 123 92 68 328 19 358 248 266 356 97 73 70 111 138
345 346 348 348 347 345 316 295 292 302 301 314 307 339 324 215 247 231 201 262 62 35 305 197 194 289 345 270 275 282 137 80 60 124 53 288 314 320 137 123 38 32 116 105
342 343 344 345 344 340 321 285 245 283 293 244 284 321 305 334 339 284 247 214 130 195 220 252 205 221 213 222 243 232 236 138 146 156 150 203 193 253 113 41 21 330 99 62
338 340 341 342 343 343 332 276 294 277 278 267 300 296 326 311 318 297 319 132 141 190 231 268 239 227 230 243 213 229 240 68 208 320 289 106 212 151 174 102 207 208 177 181
333 335 337 339 339 344 343 291 285 264 292 288 286 290 288 319 349 6 315 331 339 233 206 220 268 318 276 178 220 123 125 121 236 317 183 142 333 30 112 191 125 158 184 200
328 330 333 334 335 337 345 292 331 322 257 288 317 285 272 263 268 300 307 274 303 310 42 10 21 25 0 305 6 343 64 137 174 164 171 207 74 111 141 153 154 190 197 207
325 325 327 328 327 327 339 297 302 294 268 287 251 258 266 231 233 243 266 292 17 353 313 143 248 122 124 286 269 67 345 66 97 80 15 82 59 125 160 172 174 182 190 175
319 319 320 322 320 319 322 292 292 286 278 271 286 271 304 302 292 234 227 256 296 299 13 44 274 326 331 334 288 136 221 63 104 126 116 98 78 91 126 172 162 147 96 2
311 313 314 316 315 315 305 271 249 240 263 314 309 311 270 261 252 257 225 218 240 281 333 331 252 283 358 297 70 309 10 180 139 203 151 121 147 127 110 65 123 150 146 183
305 304 307 309 312 324 307 315 74 61 8 270 270 327 283 290 273 207 202 208 203 183 178 242 267 265 39 292 228 265 259 305 174 154 139 134 160 131 117 115 118 108 120 142
302 298 299 299 299 300 265 277 295 316 335 264 253 240 243 234 264 191 168 211 205 171 202 228 245 283 167 171 214 271 341 327 60 74 92 84 63 115 105 135 119 124 139 131
299 296 295 290 290 282 255 244 256 222 235 267 266 273 300 229 220 212 172 186 170 234 208 201 214 295 204 217 217 286 301 311 76 71 81 121 90 46 116 88 68 50 102 113
298 296 294 287 208 235 254 105 121 118 149 282 298 277 252 317 201 174 161 151 193 214 212 222 178 215 217 197 166 209 282 225 117 110 118 141 55 174 129 118 107 74 350 89
298 292 269 255 6 3 138 202 190 173 209 226 258 290 286 7 344 246 171 163 216 187 208 166 229 236 216 196 184 195 220 301 148 130 334 51 84 93 126 131 146 170 198 123
351 326 277 316 271 259 239 246 209 163 221 198 239 266 296 307 334 312 268 188 195 219 215 184 202 208 219 230 176 180 163 125 112 124 164 161 150 119 96 75 67 6 267 141
255 257 281 257 257 285 287 276 261 231 246 167 230 259 257 243 318 305 287 260 161 218 161 183 219 186 183 196 189 163 151 136 129 92 91 80 82 88 84 64 24 349 8 132
273 215 250 241 214 289 228 225 253 263 246 358 319 285 317 157 145 283 302 273 235 136 205 211 199 194 179 181 156 144 142 139 145 150 108 76 47 40 83 106 324 0 25 77
256 287 288 256 225 241 184 283 320 242 128 159 318 336 327 316 130 256 281 311 293 229 193 219 222 192 176 171 153 142 148 148 153 146 129 127 124 317 304 235 329 335 33 42
274 290 250 256 76 323 345 345 309 18 138 135 57 322 328 274 163 150 308 346 314 306 217 34 16 20 128 142 146 147 150 145 132 125 125 131 175 156 112 123 34 190 97 68
249 239 267 269 297 115 324 336 27 357 317 123 213 108 308 299 325 161 243 278 64 299 333 311 54 54 48 70 91 97 103 108 110 108 113 110 97 91 181 91 50 333 104 70
245 245 257 258 263 290 57 345 23 209 283 46 92 84 46 315 325 288 49 26 325 322 310 314 343 37 67 68 73 79 80 90 94 89 88 95 80 45 79 59 348 69 82 82